Date String (YYYY-MM-DD hh:mm:ss) UTC,Instrument flags,Ambient pressure (hPa),Sample flow (lpm),Bypass flow (lpm),Sample temperature (°C),Ambient temperature (°C),ASC tube jacket temperature (°C),LED temperature (°C),Box temperature (°C),Sample RH (%),Span deviation,Mass concentration (μg/m³),Mass concentration (μg/m³),Mass concentration (μg/m³)
DateTimeUTC,F1_M11,P_M11,Q1_M11,Q2_M11,T1_M11,T2_M11,T3_M11,T4_M11,T5_M11,U1_M11,ZSPAN_M11,X0_M11,X2_M11,X1_M11
2022-12-30 03:00:00,,0820.0,5.07,0.00,21.4,20.5,00.0,30.3,23.0,07.8,0000.0,0001.49,0000.80,0000.61
2022-12-30 03:01:00,,0820.0,4.99,0.00,21.3,19.8,00.0,30.3,22.8,07.7,0000.0,0001.48,0000.79,0000.60
2022-12-30 03:02:00,,0820.2,4.99,0.00,21.2,19.2,00.0,30.3,22.6,07.6,0000.0,0001.60,0000.81,0000.60
2022-12-30 03:03:00,,0820.2,4.99,0.00,21.1,18.9,00.0,30.2,22.4,07.7,0000.0,0001.59,0000.79,0000.58
2022-12-30 03:04:00,,0820.2,5.00,0.00,21.1,19.3,00.0,30.2,22.5,07.6,0000.0,0001.58,0000.77,0000.55
2022-12-30 03:05:00,,0820.2,5.02,0.00,21.2,20.8,00.0,30.1,22.9,07.6,0000.0,0001.58,0000.76,0000.54
2022-12-30 03:06:00,,0820.2,5.01,0.00,21.4,22.0,00.0,30.1,23.2,07.6,0000.0,0001.62,0000.76,0000.54
2022-12-30 03:07:00,,0820.2,4.95,0.00,21.5,22.0,00.0,30.2,23.3,07.6,0000.0,0001.71,0000.77,0000.54
2022-12-30 03:08:00,,0820.2,5.03,0.00,21.5,21.4,00.0,30.2,23.2,07.6,0000.0,0001.76,0000.78,0000.55
2022-12-30 03:09:00,,0820.2,5.02,0.00,21.4,20.8,00.0,30.3,23.1,07.6,0000.0,0001.77,0000.78,0000.56
2022-12-30 03:10:00,,0820.2,4.98,0.00,21.4,20.4,00.0,30.3,23.0,07.9,0000.0,0001.62,0000.77,0000.56
2022-12-30 03:11:00,,0820.2,4.98,0.00,21.4,20.1,00.0,30.3,22.9,07.8,0000.0,0001.58,0000.76,0000.55
2022-12-30 03:12:00,,0820.2,4.97,0.00,21.3,19.8,00.0,30.3,22.8,07.7,0000.0,0001.84,0000.78,0000.56
2022-12-30 03:13:00,,0820.2,5.06,0.00,21.2,19.5,00.0,30.3,22.6,07.7,0000.0,0001.75,0000.76,0000.55
2022-12-30 03:14:00,,0820.1,5.00,0.00,21.2,19.3,00.0,30.2,22.5,07.9,0000.0,0001.72,0000.76,0000.56
2022-12-30 03:15:00,,0820.2,4.99,0.00,21.2,20.0,00.0,30.2,22.7,07.9,0000.0,0001.68,0000.75,0000.56
2022-12-30 03:16:00,,0820.2,4.99,0.00,21.3,21.3,00.0,30.1,23.1,07.7,0000.0,0001.64,0000.74,0000.55
2022-12-30 03:17:00,,0820.2,4.96,0.00,21.4,22.3,00.0,30.1,23.4,07.7,0000.0,0001.53,0000.70,0000.54
2022-12-30 03:18:00,,0820.3,5.03,0.00,21.6,22.4,00.0,30.2,23.5,07.6,0000.0,0001.38,0000.68,0000.54
2022-12-30 03:19:00,,0820.2,5.00,0.00,21.6,21.6,00.0,30.3,23.3,07.7,0000.0,0001.32,0000.65,0000.53
2022-12-30 03:20:00,,0820.2,4.97,0.00,21.5,20.8,00.0,30.3,23.1,07.8,0000.0,0001.30,0000.64,0000.52
2022-12-30 03:21:00,,0820.2,5.00,0.00,21.4,20.3,00.0,30.3,22.9,07.8,0000.0,0001.33,0000.65,0000.52
2022-12-30 03:22:00,,0820.2,5.03,0.00,21.4,19.8,00.0,30.3,22.8,07.8,0000.0,0001.28,0000.65,0000.53
2022-12-30 03:23:00,,0820.2,5.02,0.00,21.3,19.3,00.0,30.3,22.6,07.8,0000.0,0001.01,0000.66,0000.55
2022-12-30 03:24:00,,0820.2,4.98,0.00,21.2,19.0,00.0,30.2,22.5,07.9,0000.0,0001.15,0000.72,0000.58
2022-12-30 03:25:00,,0820.3,5.00,0.00,21.1,18.8,00.0,30.2,22.3,07.9,0000.0,0001.15,0000.73,0000.60
2022-12-30 03:26:00,,0820.3,5.04,0.00,21.0,19.3,00.0,30.2,22.5,07.9,0000.0,0001.17,0000.74,0000.61
2022-12-30 03:27:00,,0820.3,5.00,0.00,21.2,20.7,00.0,30.1,22.8,07.9,0000.0,0001.17,0000.75,0000.63
2022-12-30 03:28:00,,0820.3,4.97,0.00,21.3,21.8,00.0,30.1,23.2,07.9,0000.0,0001.19,0000.78,0000.65
2022-12-30 03:29:00,,0820.3,5.03,0.00,21.4,22.3,00.0,30.1,23.3,07.9,0000.0,0001.27,0000.80,0000.67
2022-12-30 03:30:00,,0820.3,5.00,0.00,21.5,21.5,00.0,30.2,23.2,07.9,0000.0,0001.34,0000.82,0000.70
2022-12-30 03:31:00,,0820.3,4.97,0.00,21.4,20.7,00.0,30.2,23.0,08.0,0000.0,0001.36,0000.85,0000.73
2022-12-30 03:32:00,,0820.2,4.98,0.00,21.3,20.1,00.0,30.3,22.8,08.0,0000.0,0001.52,0000.88,0000.76
2022-12-30 03:33:00,,0820.3,5.03,0.00,21.3,19.5,00.0,30.2,22.6,08.0,0000.0,0001.65,0000.91,0000.80
2022-12-30 03:34:00,,0820.4,5.03,0.00,21.2,19.1,00.0,30.2,22.5,08.0,0000.0,0001.62,0000.90,0000.80
2022-12-30 03:35:00,,0820.4,4.99,0.00,21.1,18.8,00.0,30.2,22.3,07.9,0000.0,0001.49,0000.86,0000.79
2022-12-30 03:36:00,,0820.3,4.98,0.00,21.0,18.7,00.0,30.1,22.3,07.9,0000.0,0001.55,0000.87,0000.78
2022-12-30 03:37:00,,0820.3,4.98,0.00,21.0,19.8,00.0,30.1,22.5,07.9,0000.0,0001.56,0000.88,0000.78
2022-12-30 03:38:00,,0820.3,5.03,0.00,21.2,21.2,00.0,30.0,22.9,07.9,0000.0,0001.73,0000.92,0000.79
2022-12-30 03:39:00,,0820.3,5.02,0.00,21.3,22.1,00.0,30.1,23.2,07.8,0000.0,0001.78,0000.93,0000.79
2022-12-30 03:40:00,,0820.2,4.96,0.00,21.4,21.6,00.0,30.1,23.2,07.8,0000.0,0001.84,0000.94,0000.78
2022-12-30 03:41:00,,0820.2,4.99,0.00,21.3,20.9,00.0,30.2,23.0,07.8,0000.0,0001.74,0000.93,0000.77
2022-12-30 03:42:00,,0820.2,5.01,0.00,21.3,20.4,00.0,30.2,22.9,07.7,0000.0,0001.74,0000.91,0000.75
2022-12-30 03:43:00,,0820.2,5.02,0.00,21.3,20.1,00.0,30.2,22.8,07.7,0000.0,0001.63,0000.88,0000.72
2022-12-30 03:44:00,,0820.2,4.99,0.00,21.3,19.9,00.0,30.2,22.8,07.8,0000.0,0002.21,0000.83,0000.68
2022-12-30 03:45:00,,0820.1,4.98,0.00,21.2,19.8,00.0,30.2,22.7,07.8,0000.0,0002.75,0000.84,0000.66
2022-12-30 03:46:00,,0820.1,4.98,0.00,21.2,19.6,00.0,30.1,22.6,07.9,0000.0,0003.44,0000.84,0000.65
2022-12-30 03:47:00,,0820.1,5.00,0.00,21.1,19.6,00.0,30.1,22.5,08.1,0000.0,0003.94,0000.81,0000.63
2022-12-30 03:48:00,,0820.2,4.99,0.00,21.2,20.2,00.0,30.1,22.7,07.9,0000.0,0003.94,0000.80,0000.62
2022-12-30 03:49:00,,0820.2,5.02,0.00,21.3,21.3,00.0,30.1,23.0,07.9,0000.0,0003.83,0000.77,0000.60
2022-12-30 03:50:00,,0820.0,4.99,0.00,21.4,22.3,00.0,30.1,23.3,07.8,0000.0,0004.66,0000.72,0000.57
2022-12-30 03:51:00,,0820.0,4.98,0.00,21.6,22.7,00.0,30.1,23.6,07.8,0000.0,0005.42,0000.71,0000.55
2022-12-30 03:52:00,,0820.1,5.03,0.00,21.6,22.0,00.0,30.2,23.5,07.7,0000.0,0005.39,0000.70,0000.54
2022-12-30 03:53:00,,0820.0,4.98,0.00,21.6,21.3,00.0,30.3,23.3,07.6,0000.0,0005.34,0000.67,0000.52
2022-12-30 03:54:00,,0820.1,4.98,0.00,21.5,20.7,00.0,30.3,23.1,07.7,0000.0,0005.90,0000.68,0000.51
2022-12-30 03:55:00,,0820.1,5.02,0.00,21.5,20.4,00.0,30.3,23.0,07.8,0000.0,0005.60,0000.69,0000.50
2022-12-30 03:56:00,,0820.2,4.99,0.00,21.5,20.2,00.0,30.3,22.9,07.8,0000.0,0004.70,0000.66,0000.49
2022-12-30 03:57:00,,0820.2,5.01,0.00,21.4,20.1,00.0,30.3,22.8,07.9,0000.0,0004.19,0000.62,0000.48
2022-12-30 03:58:00,,0820.1,4.98,0.00,21.4,20.0,00.0,30.3,22.8,07.8,0000.0,0003.45,0000.63,0000.48
2022-12-30 03:59:00,,0820.0,4.98,0.00,21.3,19.8,00.0,30.3,22.8,07.9,0000.0,0003.41,0000.61,0000.47
